GW6056 Weather Reports


Display with metric or nautical units.
time (UTC)temp
F
wind
direction
speed
MPH
gust
MPH
rain 1hr
in
rain 24hr
in
rain mn
in
humidity
%
barometer
mb
20260906035703 72 42 0.0 1.0 0.00 0.04 0.04 93 1015.2
20260906035158 72 25 0.0 1.0 0.00 0.04 0.04 93 1015.5
20260906034653 72 15 0.0 0.0 0.00 0.04 0.04 93 1015.5
20260906034148 72 335 0.0 2.0 0.00 0.04 0.04 93 1015.6
20260906033643 73 330 1.0 2.0 0.00 0.04 0.04 93 1015.8
20260906033137 73 308 0.0 2.0 0.00 0.04 0.04 92 1015.9
20260906032634 73 323 0.0 0.0 0.00 0.04 0.04 92 1015.8
20260906032133 73 336 1.0 2.0 0.00 0.04 0.04 92 1015.8
20260906031629 73 340 2.0 2.0 0.00 0.04 0.04 93 1015.9
20260906031125 73 328 0.0 2.0 0.00 0.04 0.04 93 1015.8
20260906030624 73 327 2.0 2.0 0.00 0.04 0.04 93 1015.8
20260906030119 73 337 0.0 2.0 0.00 0.04 0.04 91 1015.7
20260906025619 73 25 0.0 1.0 0.00 0.04 0.04 91 1015.6
20260906025117 74 315 0.0 1.0 0.00 0.04 0.04 90 1015.7
20260906024612 73 328 1.0 2.0 0.00 0.04 0.04 91 1015.5
20260906024107 73 325 0.0 1.0 0.00 0.04 0.04 92 1015.5
20260906023603 73 12 1.0 1.0 0.00 0.04 0.04 92 1015.2
20260906023057 73 355 1.0 2.0 0.00 0.04 0.04 92 1015.4
20260906022552 73 287 0.0 2.0 0.00 0.04 0.04 92 1015.2
20260906022048 73 8 0.0 2.0 0.00 0.04 0.04 93 1015.5
20260906021544 73 36 0.0 1.0 0.00 0.04 0.04 94 1015.1
20260906021043 73 320 0.0 2.0 0.00 0.04 0.04 94 1015.5
20260906020542 73 327 2.0 3.0 0.00 0.04 0.04 94 1015.0
20260906020042 74 337 2.0 3.0 0.00 0.04 0.04 93 1015.2
20260906015541 74 1 1.0 2.0 0.00 0.04 0.04 93 1015.2
20260906015041 74 333 1.0 2.0 0.00 0.04 0.04 94 1015.4
20260906014536 74 319 1.0 2.0 0.00 0.04 0.04 94 1015.2
20260906014032 74 36 2.0 2.0 0.00 0.04 0.04 93 1015.1
20260906013527 74 39 2.0 2.0 0.00 0.04 0.04 94 1015.4
20260906013023 74 29 1.0 2.0 0.00 0.04 0.04 94 1015.4
20260906012518 74 340 1.0 2.0 0.00 0.04 0.04 94 1015.0
20260906012017 74 344 1.0 3.0 0.00 0.04 0.04 94 1014.7
20260906011513 74 341 2.0 2.0 0.00 0.04 0.04 93 1014.8
20260906011013 75 334 1.0 3.0 0.00 0.04 0.04 93 1014.9
20260906010508 75 334 2.0 2.0 0.00 0.04 0.04 93 1014.9
20260906010005 75 355 0.0 2.0 0.00 0.04 0.04 92 1014.9
20260906005504 75 18 2.0 2.0 0.00 0.04 0.04 92 1014.8
20260906005003 75 31 2.0 2.0 0.00 0.04 0.04 92 1014.6
20260906004503 75 3 1.0 2.0 0.00 0.04 0.04 92 1014.6
20260906003958 75 335 2.0 2.0 0.00 0.04 0.04 92 1014.6
20260906003453 76 354 2.0 2.0 0.00 0.04 0.04 91 1014.4
20260906002948 76 326 0.0 2.0 0.00 0.04 0.04 91 1014.5
20260906002448 76 335 2.0 3.0 0.00 0.04 0.04 91 1014.1
20260906001943 76 34 2.0 3.0 0.00 0.04 0.04 91 1014.2
20260906001439 77 330 2.0 3.0 0.00 0.04 0.04 90 1014.2
20260906000934 77 351 1.0 2.0 0.00 0.04 0.04 89 1014.2
20260906000430 77 354 1.0 2.0 0.00 0.04 0.04 89 1014.2
20260905235924 78 332 2.0 2.0 0.00 0.04 0.04 88 1014.3
20260905235424 78 340 2.0 2.0 0.00 0.04 0.04 86 1014.1
20260905234919 78 311 0.0 1.0 0.00 0.04 0.04 86 1014.1
20260905234415 78 348 1.0 2.0 0.00 0.04 0.04 86 1014.1
20260905233915 78 357 1.0 1.0 0.00 0.04 0.04 85 1013.9
20260905233410 79 326 2.0 2.0 0.00 0.04 0.04 85 1014.2
20260905232909 79 328 2.0 2.0 0.00 0.04 0.04 84 1014.0
20260905232405 80 299 2.0 2.0 0.00 0.04 0.04 82 1014.0
20260905231900 80 317 2.0 3.0 0.00 0.04 0.04 80 1014.0
20260905231356 81 192 1.0 1.0 0.00 0.04 0.04 77 1013.9
20260905230853 81 326 0.0 0.0 0.00 0.04 0.04 76 1013.9
20260905230350 82 32 0.0 1.0 0.00 0.04 0.04 74 1013.9
20260905225849 82 37 0.0 1.0 0.00 0.04 0.04 74 1013.7
20260905225344 83 186 0.0 0.0 0.00 0.04 0.04 71 1013.5
20260905224839 83 304 0.0 1.0 0.00 0.04 0.04 70 1013.6
20260905224335 83 325 0.0 2.0 0.00 0.04 0.04 72 1013.6
20260905223830 83 341 0.0 2.0 0.00 0.04 0.04 69 1013.5
20260905223327 84 315 0.0 2.0 0.00 0.04 0.04 68 1013.7
20260905222822 84 317 1.0 2.0 0.00 0.04 0.04 66 1013.6
20260905222321 85 314 1.0 2.0 0.00 0.04 0.04 61 1013.8
20260905221817 86 353 0.0 1.0 0.00 0.04 0.04 66 1013.8
20260905221314 86 328 0.0 0.0 0.00 0.04 0.04 64 1013.7
20260905220809 87 197 1.0 2.0 0.00 0.04 0.04 62 1014.0
20260905220306 88 325 1.0 2.0 0.00 0.04 0.04 61 1013.7
20260905215804 88 348 2.0 2.0 0.00 0.04 0.04 64 1013.7
20260905215301 88 240 0.0 1.0 0.00 0.04 0.04 63 1014.0
20260905214756 89 229 1.0 1.0 0.00 0.04 0.04 62 1013.8
20260905214252 89 119 0.0 2.0 0.00 0.04 0.04 63 1013.8
20260905213747 87 237 0.0 1.0 0.00 0.04 0.04 67 1014.0
20260905213243 87 220 0.0 1.0 0.00 0.04 0.04 65 1014.1
20260905212738 86 302 2.0 2.0 0.00 0.04 0.04 68 1013.9
20260905212237 86 288 0.0 4.0 0.00 0.04 0.04 68 1014.0
20260905211737 85 323 1.0 2.0 0.00 0.04 0.04 66 1014.0
20260905211232 85 191 1.0 1.0 0.00 0.04 0.04 66 1014.2
20260905210729 84 344 0.0 2.0 0.00 0.04 0.04 68 1014.1
20260905210229 83 215 0.0 3.0 0.00 0.04 0.04 70 1014.3
20260905205727 82 180 2.0 2.0 0.00 0.04 0.04 74 1014.2
20260905205222 80 314 0.0 2.0 0.00 0.04 0.04 77 1014.4
20260905204722 80 236 0.0 2.0 0.00 0.04 0.04 81 1014.4
20260905204218 79 259 2.0 2.0 0.00 0.04 0.04 79 1014.5
20260905203717 78 287 0.0 2.0 0.00 0.04 0.04 79 1014.7
20260905203213 78 293 2.0 2.0 0.00 0.04 0.04 81 1014.7
20260905202708 78 308 0.0 3.0 0.00 0.04 0.04 82 1015.0
20260905202203 78 240 0.0 2.0 0.00 0.04 0.04 81 1014.9
20260905201659 77 36 0.0 1.0 0.00 0.04 0.04 83 1014.8
20260905201159 77 163 0.0 2.0 0.00 0.04 0.04 83 1015.1
20260905200654 77 346 0.0 2.0 0.00 0.04 0.04 86 1015.0
20260905200149 77 346 0.0 2.0 0.00 0.04 0.04 84 1015.0
20260905195648 76 325 2.0 3.0 0.00 0.04 0.04 84 1015.2
20260905195143 76 359 0.0 2.0 0.00 0.04 0.04 83 1014.9
20260905194638 76 341 1.0 2.0 0.00 0.04 0.04 86 1015.2
20260905194137 76 7 2.0 2.0 0.00 0.04 0.04 84 1015.1
20260905193632 75 359 2.0 2.0 0.00 0.04 0.04 86 1014.9
20260905193127 75 338 2.0 2.0 0.00 0.04 0.04 86 1015.4
20260905192623 75 323 2.0 2.0 0.00 0.04 0.04 86 1015.2
20260905192119 75 8 1.0 2.0 0.00 0.04 0.04 85 1015.5
20260905191618 74 4 1.0 2.0 0.00 0.04 0.04 87 1015.4
20260905191116 74 347 2.0 2.0 0.00 0.04 0.04 86 1015.2
20260905190615 74 355 2.0 2.0 0.00 0.04 0.04 87 1015.5
20260905190114 74 358 2.0 2.0 0.02 0.04 0.04 86 1015.5
20260905185613 74 167 0.0 1.0 0.02 0.04 0.04 87 1015.2
20260905185108 74 4 2.0 2.0 0.00 0.03 0.03 86 1015.0
20260905184603 73 57 1.0 2.0 0.00 0.03 0.03 87 1015.2
20260905184101 74 348 1.0 3.0 0.00 0.03 0.03 89 1015.6
20260905183555 74 314 4.0 4.0 0.00 0.03 0.03 86 1015.2
20260905183051 75 164 0.0 5.0 0.00 0.03 0.03 83 1015.6
20260905182550 75 15 2.0 3.0 0.00 0.03 0.03 84 1015.4
20260905182044 76 54 3.0 3.0 0.02 0.03 0.03 82 1015.6
20260905181539 77 9 1.0 4.0 0.02 0.03 0.03 83 1014.7
20260905181038 78 344 0.0 3.0 0.14 0.03 0.03 78 1014.4
20260905180533 80 295 2.0 2.0 0.14 0.02 0.02 72 1014.6
20260905180029 82 325 4.0 6.0 0.02 0.00 0.00 61 1015.0
20260905175528 84 314 3.0 6.0 0.00 0.00 0.00 62 1015.6
20260905175024 87 326 6.0 12.0 0.00 0.00 0.00 60 1016.1
20260905174519 88 344 2.0 5.0 0.00 0.00 0.00 61 1016.4
20260905174014 89 326 3.0 4.0 0.00 0.00 0.00 62 1016.1
20260905173511 90 298 4.0 6.0 0.00 0.00 0.00 56 1015.7
20260905173006 90 340 2.0 4.0 0.00 0.00 0.00 57 1016.0
20260905172504 91 314 4.0 4.0 0.00 0.00 0.00 60 1016.0
20260905172000 90 319 1.0 4.0 0.00 0.00 0.00 58 1015.9
20260905171456 90 352 2.0 2.0 0.00 0.00 0.00 60 1016.0
20260905170952 89 299 3.0 4.0 0.00 0.00 0.00 61 1015.9
20260905170448 89 304 4.0 4.0 0.00 0.00 0.00 58 1016.1
20260905165948 89 308 2.0 4.0 0.00 0.00 0.00 66 1016.1
20260905165443 89 312 4.0 4.0 0.00 0.00 0.00 61 1016.0
20260905164938 89 326 3.0 3.0 0.00 0.00 0.00 65 1016.2
20260905164437 88 345 2.0 4.0 0.00 0.00 0.00 65 1016.1
20260905163932 88 22 2.0 3.0 0.00 0.00 0.00 62 1016.1
20260905163429 88 224 0.0 4.0 0.00 0.00 0.00 60 1016.2
20260905162925 87 172 0.0 3.0 0.00 0.00 0.00 66 1016.1
20260905162420 86 26 1.0 2.0 0.00 0.00 0.00 70 1016.2
20260905161916 86 349 0.0 2.0 0.00 0.00 0.00 68 1016.5
20260905161414 86 6 0.0 2.0 0.00 0.00 0.00 68 1016.6
20260905160912 87 62 1.0 2.0 0.00 0.00 0.00 68 1016.5
20260905160406 87 7 2.0 2.0 0.00 0.00 0.00 69 1016.5
20260905155901 87 45 1.0 2.0 0.00 0.00 0.00 70 1016.7
20260905155400 87 345 2.0 2.0 0.00 0.00 0.00 72 1016.8
20260905154859 87 338 0.0 2.0 0.00 0.00 0.00 73 1016.8
20260905154355 87 27 0.0 2.0 0.00 0.00 0.00 67 1016.8
20260905153850 86 341 0.0 2.0 0.00 0.00 0.00 73 1016.7
20260905153347 86 339 0.0 2.0 0.00 0.00 0.00 71 1016.5
20260905152846 86 111 0.0 1.0 0.00 0.00 0.00 71 1016.5
20260905152346 85 289 0.0 3.0 0.00 0.00 0.00 74 1016.4
20260905151841 85 65 1.0 2.0 0.00 0.00 0.00 73 1016.3
20260905151337 84 314 0.0 1.0 0.00 0.00 0.00 73 1016.3
20260905150836 84 263 0.0 2.0 0.00 0.00 0.00 72 1016.5
20260905150331 84 338 1.0 2.0 0.00 0.00 0.00 73 1016.3
20260905145828 83 326 1.0 3.0 0.00 0.00 0.00 73 1016.5
20260905145328 83 312 0.0 1.0 0.00 0.00 0.00 77 1016.4
20260905144827 83 227 0.0 1.0 0.00 0.00 0.00 77 1016.5
20260905144323 82 347 1.0 2.0 0.00 0.00 0.00 76 1016.6
20260905143821 82 326 0.0 2.0 0.00 0.00 0.00 77 1016.4
20260905143316 82 295 0.0 1.0 0.00 0.00 0.00 74 1016.6
20260905142816 81 273 1.0 2.0 0.00 0.00 0.00 78 1016.3
20260905142315 81 343 0.0 2.0 0.00 0.00 0.00 80 1016.6
20260905141811 81 307 0.0 0.0 0.00 0.00 0.00 81 1016.5
20260905141307 80 228 0.0 2.0 0.00 0.00 0.00 80 1016.6
20260905140802 80 262 0.0 2.0 0.00 0.00 0.00 82 1016.7
20260905140302 80 149 0.0 2.0 0.00 0.00 0.00 82 1016.7
20260905135800 80 276 2.0 2.0 0.00 0.00 0.00 83 1016.5
20260905135257 79 318 2.0 2.0 0.00 0.00 0.00 83 1016.3
20260905134757 79 337 0.0 1.0 0.00 0.00 0.00 84 1016.6
20260905134256 78 216 0.0 2.0 0.00 0.00 0.00 85 1016.5
20260905133751 78 218 0.0 1.0 0.00 0.00 0.00 86 1016.5
20260905133246 77 5 1.0 2.0 0.00 0.00 0.00 86 1016.5
20260905132745 77 349 1.0 1.0 0.00 0.00 0.00 88 1016.5
20260905132241 76 320 1.0 2.0 0.00 0.00 0.00 89 1016.5
20260905131735 76 13 1.0 2.0 0.00 0.00 0.00 90 1016.9
20260905131231 76 327 2.0 2.0 0.00 0.00 0.00 91 1016.9
20260905130725 75 17 1.0 2.0 0.00 0.00 0.00 91 1016.8
20260905130225 75 40 2.0 2.0 0.00 0.00 0.00 90 1016.9
20260905125720 75 334 1.0 2.0 0.00 0.00 0.00 91 1017.1
20260905125215 74 10 0.0 1.0 0.00 0.00 0.00 92 1017.1
20260905124712 74 356 0.0 2.0 0.00 0.00 0.00 93 1017.1
20260905124207 73 325 0.0 2.0 0.00 0.00 0.00 94 1017.0
20260905123703 73 9 1.0 2.0 0.00 0.00 0.00 94 1016.8
20260905123159 72 336 0.0 3.0 0.00 0.00 0.00 96 1016.8
20260905122658 72 327 0.0 2.0 0.00 0.00 0.00 96 1016.9
20260905122153 72 333 0.0 1.0 0.00 0.00 0.00 96 1016.7
20260905121648 71 10 0.0 0.0 0.00 0.00 0.00 97 1016.9
20260905121144 71 328 0.0 1.0 0.00 0.00 0.00 96 1016.7
20260905120643 71 51 0.0 1.0 0.00 0.00 0.00 96 1016.7
20260905120138 71 0 0.0 0.0 0.00 0.00 0.00 96 1016.7
20260905115637 71 1 0.0 2.0 0.00 0.00 0.00 96 1016.8
20260905115132 71 338 0.0 1.0 0.00 0.00 0.00 96 1016.8
20260905114632 71 348 2.0 3.0 0.00 0.00 0.00 96 1016.7
20260905114130 71 33 0.0 2.0 0.00 0.00 0.00 96 1016.6
20260905113625 71 22 0.0 2.0 0.00 0.00 0.00 96 1016.6
20260905113121 71 339 1.0 2.0 0.00 0.00 0.00 96 1016.3
20260905112618 71 316 2.0 3.0 0.00 0.00 0.00 96 1016.2
20260905112111 71 326 2.0 3.0 0.00 0.00 0.00 96 1016.2
20260905111606 71 338 2.0 2.0 0.00 0.00 0.00 96 1016.1
20260905111105 71 31 0.0 0.0 0.00 0.00 0.00 96 1016.1
20260905110604 71 40 0.0 2.0 0.00 0.00 0.00 96 1016.2
20260905110100 71 36 0.0 1.0 0.00 0.00 0.00 96 1016.0
20260905105600 71 323 0.0 1.0 0.00 0.00 0.00 96 1015.8
20260905105059 71 355 1.0 2.0 0.00 0.00 0.00 96 1015.6
20260905104555 71 319 0.0 0.0 0.00 0.00 0.00 96 1015.8
20260905104055 71 269 0.0 2.0 0.00 0.00 0.00 96 1015.6
20260905103550 71 312 0.0 3.0 0.00 0.00 0.00 96 1015.7
20260905103046 71 325 0.0 3.0 0.00 0.00 0.00 96 1015.5
20260905102541 71 50 1.0 3.0 0.00 0.00 0.00 96 1015.5
20260905102038 71 315 0.0 3.0 0.00 0.00 0.00 96 1015.6
20260905101536 71 19 1.0 2.0 0.00 0.00 0.00 96 1015.6
20260905101035 71 347 0.0 1.0 0.00 0.00 0.00 96 1015.6
20260905100531 71 12 0.0 0.0 0.00 0.00 0.00 96 1015.6
20260905100031 71 347 0.0 0.0 0.00 0.00 0.00 96 1015.6
20260905095525 71 341 1.0 1.0 0.00 0.00 0.00 96 1015.5
20260905095021 71 323 1.0 1.0 0.00 0.00 0.00 96 1015.6
20260905094516 71 330 1.0 2.0 0.00 0.00 0.00 96 1015.8
20260905094015 71 6 0.0 2.0 0.00 0.00 0.00 96 1015.7
20260905093510 72 356 0.0 1.0 0.00 0.00 0.00 95 1015.8
20260905093006 72 346 1.0 1.0 0.00 0.00 0.00 95 1015.6
20260905092501 72 344 0.0 1.0 0.00 0.00 0.00 95 1015.7
20260905091957 72 341 0.0 1.0 0.00 0.00 0.00 95 1015.7
20260905091456 72 343 0.0 1.0 0.00 0.00 0.00 95 1015.5
20260905090955 72 17 0.0 1.0 0.00 0.00 0.00 94 1015.6
20260905090451 72 6 0.0 0.0 0.00 0.00 0.00 94 1015.6
20260905085950 72 55 0.0 1.0 0.00 0.00 0.00 94 1015.7
20260905085449 72 315 0.0 0.0 0.00 0.00 0.00 94 1015.6
20260905084945 72 319 0.0 0.0 0.00 0.00 0.00 95 1015.6
20260905084444 72 331 0.0 0.0 0.00 0.00 0.00 95 1015.7
20260905083939 72 323 2.0 2.0 0.00 0.00 0.00 95 1015.8
20260905083435 72 2 0.0 1.0 0.00 0.00 0.00 95 1015.9
20260905082931 72 346 0.0 0.0 0.00 0.00 0.00 95 1015.9
20260905082426 72 12 0.0 0.0 0.00 0.00 0.00 95 1015.9
20260905081921 72 17 0.0 0.0 0.00 0.00 0.00 94 1016.2
20260905081416 72 6 1.0 1.0 0.00 0.00 0.00 95 1016.0
20260905080915 72 0 2.0 2.0 0.00 0.00 0.00 95 1016.2
20260905080415 72 327 0.0 0.0 0.00 0.00 0.00 95 1016.2
20260905075914 73 336 2.0 2.0 0.00 0.00 0.00 95 1016.3
20260905075409 73 325 1.0 2.0 0.00 0.00 0.00 95 1016.2
20260905074908 73 7 0.0 0.0 0.00 0.00 0.00 95 1016.5
20260905074404 73 349 2.0 2.0 0.00 0.00 0.00 95 1016.7
20260905073859 73 12 0.0 2.0 0.00 0.00 0.00 94 1016.4
20260905073354 73 358 0.0 0.0 0.00 0.00 0.00 94 1016.4
20260905072849 73 6 0.0 2.0 0.00 0.00 0.00 94 1016.6
20260905072344 73 5 1.0 2.0 0.00 0.00 0.00 94 1016.5
20260905071840 73 0 2.0 2.0 0.00 0.00 0.00 93 1016.5
20260905071332 74 26 1.0 2.0 0.00 0.00 0.00 93 1016.5
20260905070831 74 358 2.0 2.0 0.00 0.00 0.00 93 1016.5
20260905070328 73 318 2.0 2.0 0.00 0.00 0.00 93 1016.5
20260905065826 73 21 0.0 2.0 0.00 0.00 0.00 94 1016.7
20260905065325 74 15 0.0 2.0 0.00 0.00 0.00 94 1016.6
20260905064820 74 357 1.0 2.0 0.00 0.00 0.00 94 1016.7
20260905064316 74 2 1.0 2.0 0.00 0.00 0.00 94 1016.8
20260905063814 74 43 2.0 2.0 0.00 0.00 0.00 94 1016.9
20260905063310 74 38 2.0 2.0 0.00 0.00 0.00 93 1016.6
20260905062807 74 314 0.0 2.0 0.00 0.00 0.00 93 1016.7
20260905062305 74 347 1.0 2.0 0.00 0.00 0.00 94 1016.9
20260905061756 74 301 0.0 2.0 0.00 0.00 0.00 94 1017.1
20260905061255 74 4 1.0 2.0 0.00 0.00 0.00 94 1017.1
20260905060749 74 331 2.0 2.0 0.00 0.00 0.00 94 1017.3
20260905060247 74 359 2.0 2.0 0.00 0.00 0.00 93 1017.3
20260905055745 74 5 2.0 2.0 0.00 0.00 0.00 93 1017.3
20260905055240 75 344 2.0 2.0 0.00 0.00 0.00 93 1017.4
20260905054735 75 23 2.0 2.0 0.00 0.00 0.00 93 1017.4
20260905054232 75 14 1.0 2.0 0.00 0.00 0.00 92 1017.3
20260905053731 75 22 2.0 2.0 0.00 0.00 0.00 92 1017.3
20260905053227 75 12 0.0 2.0 0.00 0.00 0.00 92 1017.3
20260905052726 75 350 0.0 2.0 0.00 0.00 0.00 92 1017.4
20260905052221 75 335 2.0 2.0 0.00 0.00 0.00 93 1017.5
20260905051720 75 336 2.0 2.0 0.00 0.00 0.00 93 1017.4
20260905051218 75 340 2.0 2.0 0.00 0.00 0.00 93 1017.4
20260905050713 75 351 2.0 2.0 0.00 0.00 0.00 92 1017.3
20260905050210 75 8 2.0 2.0 0.00 0.00 0.00 93 1017.4
20260905045709 75 8 0.0 2.0 0.00 0.00 0.00 92 1017.5
20260905045205 75 7 0.0 1.0 0.00 0.00 0.00 93 1017.4
20260905044700 75 0 1.0 2.0 0.00 0.00 0.00 93 1017.6
20260905044200 75 342 2.0 2.0 0.00 0.00 0.00 94 1017.6
20260905043659 75 330 2.0 2.0 0.00 0.00 0.00 94 1017.5
20260905043154 75 356 0.0 2.0 0.00 0.00 0.00 94 1017.4
20260905042649 75 25 2.0 2.0 0.00 0.00 0.00 95 1017.4
20260905042148 75 9 1.0 2.0 0.00 0.00 0.00 95 1017.5
20260905041644 75 343 2.0 2.0 0.00 0.00 0.00 95 1017.4
20260905041139 75 13 1.0 2.0 0.00 0.00 0.00 95 1017.5
20260905040634 75 15 2.0 2.0 0.00 0.00 0.00 95 1017.3
20260905040133 75 351 2.0 2.0 0.00 0.00 0.00 95 1017.4